Location: Unspecified
(0.0000°N, 0.0000°E)
Time: 14:59:12
(UTC+00:00)

COSMOS 1275 DEB - Pass Details

Date: 15 February 2026
Orbit: 902 x 1038 km, 83.0° (Epoch: 19 November)

Event Time Altitude Azimuth Distance (km) Brightness Sun altitude
Rises 04:30:53 0° 164° (SSE) 3,744 ? -25.1°
Reaches altitude 10° 04:33:46 10° 153° (SSE) 2,781 ? -24.4°
Maximum altitude 04:39:17 31° 93° (E) 1,664 ? -23.1°
Drops below altitude 10° 04:44:40 10° 33° (NNE) 2,711 ? -21.8°
Sets 04:47:25 0° 23° (NNE) 3,636 ? -21.1°
